Theta_e
347 349 350 351 352 352 350 348 349 351 353 357 361 362 360 358 357 355 353 354 353 352 355 356 355 355 356 358 359 359 359 359 359 359 359 359 358 356 355 353 353 353 352 352 353 352 349 346 344 345 346 345 346 347 348 348 345 343 343 343 343 344 342 341 342 343 344 345 345 345 345 344 344 344 344 345 345 346 346 346 345 345 344 342 342
348 350 351 351 352 350 349 350 351 353 355 358 360 359 358 356 354 354 354 357 359 359 360 361 360 360 361 361 360 359 357 357 357 357 357 356 356 355 353 352 352 350 349 348 348 347 344 342 342 343 343 342 342 342 343 345 345 343 343 342 342 343 343 343 343 344 345 345 344 345 345 344 344 344 345 345 346 346 346 345 345 344 343 343 343
349 349 350 350 350 350 352 353 354 356 356 357 358 359 359 359 358 357 359 361 361 361 360 359 359 358 358 357 355 353 351 351 351 350 350 350 350 352 350 348 346 344 342 341 341 340 339 337 338 340 341 340 339 338 338 340 343 344 345 344 344 345 344 345 344 342 341 342 342 343 343 343 343 343 344 346 346 346 346 345 345 345 345 345 344
350 351 352 351 351 353 354 356 356 356 357 359 360 362 361 362 360 360 360 360 358 358 357 356 355 355 353 351 349 347 345 344 343 342 341 340 341 342 343 341 338 337 335 335 335 335 335 335 335 336 337 338 338 337 338 339 342 344 345 345 345 345 344 344 343 341 338 339 340 341 341 341 341 342 343 344 345 345 346 347 347 347 346 345 344
353 354 354 354 355 355 357 360 360 359 360 360 361 360 360 359 360 359 358 357 355 354 353 352 352 350 347 344 342 341 339 338 337 336 335 335 334 334 335 335 334 333 332 331 331 331 330 331 332 334 335 336 337 336 337 339 340 341 341 342 343 344 344 344 343 342 340 339 340 341 341 341 341 342 342 342 343 344 345 347 347 347 346 346 347
353 354 356 357 357 357 360 363 363 362 361 360 360 359 358 357 357 355 354 353 351 350 349 347 346 344 342 340 339 337 335 334 333 332 331 331 330 330 330 330 331 330 330 329 328 327 327 328 330 331 333 335 335 335 336 337 337 337 338 339 339 341 342 344 344 343 341 340 340 341 341 341 340 341 341 341 342 343 343 344 345 344 345 345 346
356 356 357 358 359 362 363 363 362 361 360 359 358 357 356 355 353 351 350 349 347 346 345 343 342 340 338 337 335 333 332 331 330 329 329 328 328 328 328 327 327 327 326 325 325 325 327 328 329 330 332 333 334 335 335 336 336 336 336 337 338 338 340 342 343 343 342 341 341 340 340 340 340 340 341 340 340 341 341 341 342 343 344 346 345
358 359 359 362 363 363 362 361 360 358 357 356 355 354 353 351 349 348 346 345 343 342 341 340 338 337 336 334 333 332 331 329 328 327 327 327 326 326 325 324 323 323 322 323 323 325 326 327 328 329 331 333 334 335 335 335 335 335 336 336 337 338 339 340 341 341 341 341 340 339 339 340 340 339 340 340 338 339 340 341 342 343 344 345 343
361 362 363 364 363 362 360 358 357 356 354 353 352 350 349 347 346 344 343 341 339 339 338 337 336 335 334 333 331 331 330 328 326 325 325 324 324 323 323 322 322 321 322 322 323 324 324 325 325 327 329 331 332 333 333 333 334 335 336 336 336 336 337 338 338 339 339 339 339 339 339 339 339 338 339 339 340 340 340 341 343 344 343 343 343
365 365 364 363 360 359 358 355 355 353 352 350 348 347 346 344 343 341 339 338 338 337 336 336 335 334 333 332 330 329 328 325 324 324 323 322 322 321 321 320 320 321 321 322 322 322 323 323 324 325 327 329 330 331 330 331 332 334 335 335 335 336 336 336 336 336 337 339 339 339 339 339 339 339 339 341 341 339 339 341 343 343 343 343 343
365 363 360 359 358 357 355 353 351 350 348 347 345 344 342 341 339 338 337 337 336 336 335 334 333 332 331 330 328 326 325 324 323 323 322 321 321 321 320 320 320 320 321 321 321 321 322 322 323 323 325 327 328 328 328 330 331 333 333 334 334 335 336 336 336 335 336 337 337 337 337 337 338 338 339 340 340 339 340 341 343 341 341 341 341
362 358 357 355 354 354 352 350 349 347 345 344 342 341 339 337 337 337 336 335 334 334 333 331 330 328 327 327 325 324 324 323 323 321 321 321 321 320 320 320 320 321 321 321 322 322 322 322 322 323 324 326 327 326 327 328 329 330 331 331 333 334 335 335 335 336 337 337 337 337 336 336 336 337 339 340 339 339 339 338 339 339 338 338 338
357 355 353 353 352 351 349 348 346 343 342 341 339 338 336 335 336 335 334 333 332 330 328 327 326 325 325 325 324 324 324 323 321 320 320 321 321 321 321 321 321 321 322 322 322 322 323 322 322 322 323 325 327 327 326 326 326 328 327 328 331 333 334 334 334 335 336 336 337 337 337 337 337 337 338 339 339 339 338 337 338 339 338 337 337
354 352 351 350 349 348 346 345 342 340 338 337 335 335 335 335 334 334 332 331 329 327 325 324 325 325 325 324 324 324 322 320 320 320 321 321 322 322 322 322 322 322 322 323 323 324 324 323 323 323 324 326 326 326 326 326 326 328 327 326 330 333 334 335 335 334 335 335 336 337 337 338 337 337 337 337 337 338 339 339 341 341 340 340 341
351 350 349 348 347 345 344 342 339 337 336 335 334 334 333 333 332 331 330 328 326 325 324 324 325 325 325 324 324 323 320 319 320 321 321 322 322 323 323 323 323 323 323 324 324 324 324 324 324 324 324 325 326 325 325 326 327 328 326 325 330 333 333 334 335 334 335 335 336 337 337 337 337 337 336 337 337 338 339 340 340 340 341 342 341
348 348 347 346 344 344 342 339 337 336 335 335 335 333 331 330 329 328 327 326 324 324 324 325 326 325 324 323 322 320 319 320 321 321 322 323 323 323 323 324 324 324 324 325 325 325 325 325 325 324 325 326 325 324 325 326 326 326 325 325 330 332 332 332 334 334 334 335 335 335 335 335 336 336 337 337 338 338 339 339 339 339 340 340 340
347 347 346 344 343 342 339 337 335 334 334 334 334 331 329 328 327 326 325 325 324 325 324 324 324 324 324 323 321 320 321 321 322 322 323 323 323 323 324 324 324 325 325 325 326 325 325 325 325 323 324 324 323 323 324 325 325 325 325 326 329 331 330 331 333 334 335 335 335 334 334 335 336 336 337 337 337 338 339 339 339 338 338 339 339
345 344 343 342 340 339 337 336 335 333 332 332 330 329 328 327 326 325 325 324 325 324 322 321 320 321 323 322 321 321 322 322 322 323 323 323 323 323 323 323 324 324 325 326 326 325 325 325 324 322 321 322 322 322 323 323 323 324 325 326 328 328 328 330 332 334 334 335 336 335 336 336 336 335 337 336 337 338 338 338 338 338 338 338 338
343 342 341 339 338 337 336 335 334 332 331 330 328 328 327 326 325 325 324 324 323 321 319 317 317 319 321 322 322 322 322 322 322 323 323 323 324 324 324 324 324 324 325 325 326 326 325 324 324 321 320 321 321 321 322 322 323 324 324 324 325 325 326 329 333 334 334 334 335 334 334 334 334 335 336 336 336 337 336 337 338 337 337 338 338
342 340 339 338 337 336 334 333 332 331 329 329 328 327 326 325 325 325 324 322 320 318 317 317 319 320 321 322 322 321 321 321 321 321 322 323 324 324 325 324 324 324 325 325 326 326 326 325 324 323 322 322 321 321 321 322 323 323 323 322 323 323 326 331 333 333 333 333 333 332 332 331 332 332 334 336 336 336 336 336 336 337 336 336 337
341 339 338 337 335 334 333 332 331 330 328 328 327 326 326 325 326 325 324 322 319 317 317 318 319 320 320 321 320 319 319 320 320 320 320 321 322 323 325 325 324 324 325 325 325 326 327 327 327 326 325 325 325 324 323 323 323 323 322 321 322 325 329 331 331 329 328 329 329 329 329 328 329 329 330 334 335 335 336 336 335 335 335 335 335
339 337 336 335 334 333 332 331 330 329 328 328 328 327 326 326 325 325 324 322 318 316 317 318 319 319 319 319 319 319 319 319 320 319 320 321 321 322 323 325 325 324 325 325 326 326 327 327 327 327 327 328 328 328 328 327 326 325 323 323 325 328 329 328 327 326 325 325 325 326 325 326 326 326 327 331 334 334 334 335 334 334 334 334 334
337 335 334 333 332 332 330 330 329 328 328 327 327 328 327 326 324 323 322 319 316 316 318 318 319 319 318 318 319 319 319 319 319 320 321 322 323 322 323 324 325 325 325 325 326 326 326 327 327 327 327 328 328 329 329 330 329 328 327 327 328 328 326 325 324 324 324 324 325 325 325 325 326 326 327 330 333 333 333 333 332 332 332 332 331
335 334 332 331 331 331 330 329 328 328 328 327 328 328 326 323 320 318 316 315 315 316 318 318 318 318 318 318 318 319 319 319 320 321 322 323 324 324 324 325 325 326 326 326 326 326 326 327 327 327 327 327 327 327 328 328 329 329 329 328 327 325 324 323 323 323 323 324 325 325 325 325 326 327 328 329 330 330 329 328 327 327 327 325 325
334 333 331 331 332 331 330 329 328 328 327 327 327 327 324 318 314 312 312 313 314 316 316 317 317 317 317 318 318 318 319 320 321 322 323 323 324 324 325 325 325 326 326 327 327 327 327 327 327 327 327 327 326 326 326 326 326 326 326 325 324 323 323 323 323 323 323 324 324 324 324 325 326 327 327 326 325 325 325 324 323 323 322 322 321
333 332 331 331 331 330 329 328 327 327 326 325 326 326 322 318 316 315 315 315 315 315 314 314 315 315 316 317 317 318 319 320 321 322 323 323 323 323 323 324 324 325 326 326 326 327 327 326 327 326 326 326 326 326 326 326 325 325 324 324 324 324 324 324 324 323 323 323 323 323 324 325 326 326 326 325 324 324 323 323 322 321 320 319 318
332 332 332 330 329 329 328 328 328 327 325 324 324 325 323 321 319 319 319 317 315 313 312 312 313 314 316 317 318 318 319 319 320 321 322 322 323 323 323 322 322 323 323 324 324 325 324 324 324 324 323 324 324 325 325 326 326 326 326 325 325 325 325 326 325 324 323 323 322 322 322 323 324 324 324 324 324 323 323 322 322 321 319 318 317
332 331 330 329 329 328 328 328 328 327 325 323 322 322 322 321 320 320 318 315 312 311 311 311 311 312 315 317 318 319 319 319 319 320 321 322 323 323 324 323 322 321 321 322 322 323 322 322 322 321 321 321 322 322 323 323 323 324 324 325 325 325 325 325 325 326 325 324 322 321 320 320 321 322 322 322 322 322 322 322 321 321 321 320 320
330 329 328 328 327 327 327 327 327 326 325 324 322 321 321 320 320 320 317 313 311 310 310 310 310 311 313 316 318 318 318 318 319 319 320 321 322 322 323 323 322 321 320 321 321 321 321 321 321 320 319 319 320 320 320 320 320 320 320 321 322 323 323 322 323 324 326 326 324 322 320 320 320 321 320 321 321 321 321 322 322 322 322 322 322
329 328 328 326 326 326 326 325 325 325 324 322 319 318 317 317 317 316 314 313 311 310 310 310 309 310 312 315 318 318 317 318 319 319 319 320 321 322 322 322 322 321 320 320 320 320 320 320 320 320 319 318 319 319 319 319 319 319 319 319 319 321 321 321 321 321 324 325 325 324 323 321 320 320 320 321 321 320 320 320 320 321 321 322 322
330 329 327 324 324 323 322 321 322 322 320 318 315 314 313 313 313 312 311 311 311 310 310 309 308 310 313 316 317 317 317 318 318 318 319 320 320 321 321 321 321 320 320 320 320 320 320 320 320 320 320 320 320 319 319 319 318 318 318 318 318 318 319 320 320 320 321 322 324 325 325 324 323 322 321 321 321 321 320 320 319 319 320 320 320
330 328 325 323 322 320 318 317 317 316 315 313 312 312 311 311 310 310 310 309 309 309 308 307 308 311 315 317 317 317 317 318 318 318 318 319 319 320 320 320 320 320 320 319 319 318 319 319 319 319 319 320 320 320 320 319 319 318 318 318 318 318 317 317 318 319 320 320 321 322 323 324 324 324 323 322 322 321 321 321 320 320 319 319 319
330 328 325 323 321 317 314 313 313 312 312 311 310 310 310 309 309 309 308 308 308 307 307 308 311 314 316 316 317 317 317 318 318 317 317 317 318 319 320 319 319 319 319 318 318 318 318 318 318 318 318 319 320 320 320 320 319 319 319 318 318 317 317 317 317 317 317 318 319 319 320 320 321 322 323 323 323 322 322 322 321 321 321 321 320
330 328 326 324 321 317 313 312 312 311 310 310 309 309 309 309 308 308 308 307 307 306 307 310 313 315 315 316 316 316 317 317 317 317 317 316 316 317 318 318 318 318 318 318 317 317 317 317 317 317 317 318 319 319 319 319 319 319 319 319 318 317 316 316 316 315 316 317 317 317 317 317 317 318 318 319 321 321 321 321 320 320 320 320 319
329 328 327 326 324 319 313 310 311 310 309 309 309 310 310 310 310 310 311 309 307 306 308 312 314 315 315 315 315 315 316 317 317 317 316 316 315 315 315 316 316 317 317 317 317 316 316 316 316 316 316 317 318 319 319 319 319 319 319 318 318 317 316 316 316 315 315 316 316 315 315 315 315 314 313 313 314 314 314 315 314 314 313 314 314
326 326 326 326 326 323 315 310 310 309 309 310 310 311 313 314 314 315 315 313 310 308 309 313 315 315 316 316 315 315 316 316 316 316 316 316 315 314 314 315 315 315 316 316 316 316 316 315 315 315 315 316 317 318 319 319 318 319 319 318 318 317 317 316 315 315 315 316 316 315 314 314 314 314 313 312 312 311 311 311 311 311 311 311 311
325 324 323 323 324 323 315 310 310 310 310 310 311 312 315 316 318 319 319 317 315 312 311 312 314 314 315 316 316 315 315 315 315 316 317 317 317 316 316 316 316 316 315 315 316 316 315 315 315 315 315 315 315 316 317 318 318 318 318 318 318 317 317 315 315 314 315 315 315 315 315 314 314 314 314 313 312 312 312 312 312 312 312 311 312
327 326 322 319 319 318 313 309 310 311 311 311 311 312 314 316 318 321 322 321 319 316 316 316 315 313 314 317 316 315 315 315 315 315 315 316 317 317 317 317 317 317 317 316 316 316 315 315 314 314 314 314 314 315 316 317 318 318 318 318 318 317 316 316 315 314 314 314 314 315 315 314 314 313 313 313 313 313 313 313 313 313 312 312 312
329 329 323 316 313 312 312 312 314 315 315 316 316 317 318 319 320 322 322 321 319 317 317 317 314 311 314 317 316 314 314 315 315 314 314 315 316 317 317 318 318 317 318 317 317 317 316 316 315 315 314 313 312 312 312 313 316 317 318 318 317 316 316 316 315 314 314 314 314 314 314 314 314 314 313 313 314 313 313 313 313 313 312 312 312
329 329 327 322 317 315 317 321 322 322 323 324 323 324 324 322 320 319 318 316 315 315 314 312 309 310 315 317 316 314 314 314 314 315 314 314 314 315 316 317 317 317 318 317 317 317 317 317 317 316 315 313 310 307 307 308 312 316 318 317 316 316 316 316 316 315 314 314 314 314 314 314 313 314 314 313 313 313 313 313 313 313 313 312 312
328 329 329 328 327 326 326 327 326 325 324 324 323 323 322 319 318 317 316 315 315 314 311 308 308 312 315 315 315 315 315 314 314 314 314 314 314 314 314 315 315 317 317 317 317 317 317 317 317 317 316 315 311 307 304 305 308 312 315 316 316 316 316 316 316 316 315 314 314 314 314 313 313 313 313 313 313 313 313 313 313 313 312 312 312
329 328 329 329 329 329 328 327 325 323 322 321 320 319 318 317 317 316 315 315 315 314 310 307 308 312 314 314 314 315 315 314 315 314 314 314 314 314 314 314 314 315 316 316 316 316 316 316 317 316 316 316 314 309 305 304 305 307 310 313 316 316 316 316 316 315 315 314 314 313 313 313 314 313 312 312 312 312 312 313 313 312 312 312 311
328 328 328 329 329 328 326 325 324 323 323 322 321 320 319 317 317 316 316 315 315 313 309 307 309 313 314 314 314 315 315 314 315 315 314 315 314 314 314 313 312 313 314 314 315 315 315 315 316 316 316 316 315 311 306 304 304 305 308 312 315 315 315 316 316 315 315 315 314 313 313 313 313 313 313 312 312 312 312 312 312 311 311 311 311
328 328 328 328 328 327 325 324 323 323 323 323 322 320 319 318 317 316 316 315 315 313 311 310 311 314 314 315 316 316 316 316 315 316 315 315 315 314 314 313 312 312 312 313 313 313 313 314 315 315 315 315 315 312 307 304 304 305 306 310 313 314 315 316 316 315 315 315 314 315 314 313 313 313 313 313 313 312 312 312 312 311 311 311 311
328 328 328 327 326 326 325 325 325 324 324 322 322 321 320 318 317 316 316 316 315 314 315 315 315 315 315 316 317 317 317 317 317 316 316 316 316 315 314 313 313 312 313 312 312 312 311 312 313 314 314 314 314 312 308 304 303 304 305 306 308 310 312 314 316 315 315 315 315 315 315 314 313 312 312 312 313 312 312 312 312 311 310 310 310
328 328 328 327 326 326 326 326 326 325 323 322 322 322 320 318 317 317 317 316 316 315 315 316 317 317 317 318 318 318 318 318 318 317 317 316 316 316 315 314 313 313 313 313 312 311 311 311 311 313 313 313 313 313 309 304 303 304 304 304 305 306 308 311 315 316 315 315 315 314 314 314 314 312 310 310 312 312 311 311 311 310 310 310 310
329 328 328 327 326 326 326 326 325 325 323 321 322 321 320 319 318 317 316 316 316 315 315 316 316 317 317 318 318 318 318 318 318 317 317 317 317 316 315 315 314 313 313 313 312 312 312 311 311 311 312 312 312 311 308 304 303 304 304 304 305 304 305 309 313 315 315 315 315 314 313 313 313 312 311 310 310 311 311 311 310 310 310 310 310
329 328 327 327 326 326 326 327 326 324 322 321 321 320 320 320 319 318 318 317 316 316 315 316 317 317 318 318 318 318 318 318 318 318 318 318 317 317 316 315 315 314 313 313 313 313 312 312 312 312 311 311 310 309 306 304 304 304 304 304 305 304 304 306 311 314 315 314 314 314 314 313 312 311 311 310 310 309 309 309 309 309 309 310 310
329 328 327 327 326 326 326 326 326 324 323 322 321 321 320 320 318 318 318 317 315 315 317 318 318 318 318 319 319 319 318 318 318 318 319 319 318 317 316 316 316 315 314 313 313 313 313 312 313 312 312 312 310 308 305 304 304 305 304 304 305 305 304 305 308 312 314 313 311 312 313 314 313 311 309 310 311 310 309 308 309 308 307 308 309
327 327 326 326 326 326 326 326 325 324 323 322 321 321 321 320 318 318 317 315 315 317 319 319 319 319 319 319 319 319 318 319 318 318 319 319 319 318 318 317 317 316 315 315 314 313 313 313 313 313 313 313 310 307 305 304 305 305 305 305 305 305 305 305 307 310 314 313 311 311 311 312 312 310 307 307 309 311 310 309 309 307 306 307 308
326 326 326 326 326 326 326 325 324 323 323 323 322 321 320 319 318 316 315 315 316 317 318 318 319 319 320 320 319 319 319 319 319 319 319 319 319 318 318 318 318 316 316 316 315 314 313 313 313 312 313 313 311 308 306 305 305 305 305 305 305 305 305 304 305 309 312 313 313 312 312 312 311 311 308 306 307 310 311 311 310 309 308 307 308
Wind_Speed
37 36 35 34 32 30 29 28 27 26 25 26 27 27 26 23 19 17 14 10 7 5 3 2 3 4 4 5 5 4 4 5 5 4 3 2 3 5 6 8 8 9 12 13 14 14 14 11 8 7 12 15 15 15 18 21 18 15 18 21 20 17 17 18 13 12 23 28 26 27 27 24 23 23 22 22 24 24 24 24 24 25 24 21 19
37 36 34 34 33 31 29 28 26 26 26 27 26 23 18 12 9 8 7 7 6 5 6 6 6 6 7 7 7 7 7 7 7 6 6 5 5 5 8 9 9 10 12 13 13 14 14 13 10 7 8 9 11 12 14 17 16 15 17 17 19 20 18 19 17 12 16 24 26 25 24 21 18 19 20 19 21 22 20 20 20 20 19 17 16
38 37 35 34 33 31 29 25 22 20 19 17 14 10 8 8 10 10 11 10 8 8 7 7 7 7 8 9 9 9 10 10 9 9 8 8 7 6 7 9 10 11 11 12 12 13 14 14 13 10 8 7 10 12 13 15 16 17 18 16 16 19 20 20 18 12 9 16 24 25 23 21 19 18 17 15 15 16 17 16 15 15 15 14 13
37 36 35 33 33 30 25 19 15 10 8 9 11 13 13 13 12 11 11 10 10 9 9 8 8 8 9 10 11 11 12 12 11 11 11 10 10 8 8 9 10 10 11 11 12 14 15 15 15 13 10 9 10 12 13 14 15 16 17 17 16 18 20 21 20 16 10 13 22 27 24 22 20 19 18 17 16 15 15 13 12 12 11 9 9
35 34 33 32 30 25 17 13 12 12 13 15 16 15 14 13 12 12 11 11 11 10 10 9 9 10 11 12 12 12 12 12 12 12 12 12 12 11 11 11 12 13 14 15 15 15 15 16 16 15 13 12 11 11 12 13 14 15 14 14 14 15 17 19 20 18 15 15 19 23 23 21 22 22 20 18 17 17 16 15 14 14 14 13 14
33 33 31 28 24 17 13 14 15 16 16 17 16 15 14 13 12 12 11 11 11 10 10 11 11 12 13 12 12 13 13 13 13 14 14 14 14 14 15 15 16 17 17 18 17 16 16 15 15 15 14 14 13 13 13 13 13 14 13 13 13 13 13 15 16 15 15 15 16 19 22 21 21 21 19 15 14 15 16 17 18 18 17 17 18
30 29 26 22 17 14 15 17 18 19 19 18 16 15 14 13 13 13 12 12 12 11 12 13 13 13 13 13 13 13 13 14 16 16 17 17 17 18 19 19 19 18 18 18 17 16 15 14 14 14 13 13 13 13 13 13 13 14 14 13 12 11 10 12 12 12 13 14 14 17 21 21 18 18 18 16 15 16 16 17 18 16 13 13 13
27 23 21 19 17 18 20 20 21 21 20 19 18 16 15 14 14 13 12 12 13 13 13 13 13 13 13 13 14 14 14 16 18 19 19 20 21 21 22 21 20 18 16 15 15 14 13 13 12 12 12 12 12 12 11 11 11 12 12 11 11 11 10 10 11 11 13 13 14 16 18 19 18 17 17 15 13 14 13 12 13 12 9 9 9
25 23 22 22 22 23 23 22 21 21 20 19 18 17 16 15 14 14 13 14 14 14 14 14 13 13 13 14 14 15 16 18 20 21 21 22 23 22 21 18 16 14 14 14 14 13 12 12 12 11 12 12 11 11 11 10 10 9 9 9 9 11 11 10 10 11 12 12 13 13 13 16 19 17 16 14 12 10 9 8 11 9 7 7 6
27 26 26 26 26 25 24 23 22 20 19 19 18 17 16 15 14 14 15 15 15 15 14 14 14 14 14 14 14 15 17 19 20 21 22 23 22 20 17 14 12 12 12 13 14 13 12 12 12 11 11 10 10 11 11 10 9 7 7 7 8 9 10 11 11 12 11 10 10 11 11 13 16 16 15 16 13 11 9 8 9 7 5 5 4
30 29 29 28 27 26 24 23 22 21 20 19 18 16 15 15 15 15 15 15 15 14 14 14 14 13 13 14 14 16 17 19 20 22 23 23 20 17 15 13 12 11 12 14 15 15 15 14 13 12 10 10 11 11 9 8 8 7 6 6 6 5 6 9 11 11 10 9 9 11 11 12 16 16 16 17 16 12 9 8 7 5 4 4 3
31 30 29 28 27 26 25 23 22 22 20 19 17 16 16 16 16 16 16 15 14 14 14 14 13 13 13 13 14 15 17 19 20 22 22 19 17 15 13 13 13 13 14 15 16 16 16 15 15 13 11 11 11 10 8 7 7 7 6 5 4 4 5 5 6 7 7 8 9 11 12 12 15 14 11 11 12 9 7 7 6 5 7 7 5
32 31 29 29 27 26 25 24 23 22 20 18 17 16 16 16 16 16 16 15 14 15 15 14 13 13 12 13 13 14 16 18 19 20 19 16 16 15 13 13 13 14 15 16 16 16 16 16 15 13 11 10 8 7 7 6 5 5 5 4 4 4 5 4 4 5 7 7 8 9 10 10 13 12 7 6 7 5 7 9 8 6 6 6 4
32 31 30 29 27 26 25 24 23 21 19 18 17 17 17 17 16 16 15 15 15 15 15 14 13 12 11 11 12 14 16 18 19 18 16 16 16 15 14 14 14 15 15 16 16 16 16 15 14 13 11 8 5 6 7 6 5 4 5 5 6 5 4 4 2 3 4 6 6 7 8 8 10 9 6 5 5 5 7 9 6 3 4 3 3
32 31 30 29 27 26 25 24 23 22 20 19 19 18 18 18 17 16 15 15 15 15 15 14 12 11 10 11 12 14 16 17 17 16 16 17 17 16 15 15 16 16 16 16 16 16 16 15 13 12 11 7 4 6 8 7 4 3 5 6 6 6 6 5 5 5 4 2 3 6 8 8 8 7 4 3 4 4 5 6 3 3 4 3 3
31 31 30 29 28 26 25 25 24 23 21 20 20 20 20 19 17 16 15 16 16 16 16 14 12 11 10 11 12 15 16 16 15 16 18 18 19 18 18 18 18 18 18 18 18 17 17 14 10 9 7 4 4 7 7 6 3 3 5 6 6 8 9 9 9 9 8 7 6 4 4 5 6 4 2 2 3 3 3 2 2 2 1 1 1
30 31 30 29 28 26 25 25 24 23 21 21 22 21 20 19 17 16 17 18 17 16 15 13 12 11 10 12 14 14 15 16 16 18 19 19 20 20 20 20 20 20 19 19 19 18 17 14 10 8 6 4 5 6 5 4 2 3 5 6 5 7 10 12 12 11 9 9 10 8 5 5 5 4 3 3 4 3 2 1 1 1 2 1 1
30 31 30 29 27 26 25 24 24 23 23 23 23 22 20 18 17 17 18 19 18 16 14 12 12 11 11 12 14 15 16 17 17 18 19 20 20 21 22 22 22 20 20 19 19 19 18 15 13 11 7 4 4 4 4 3 2 3 6 7 6 7 10 14 15 13 10 10 10 10 9 9 8 7 5 3 2 1 1 2 1 1 3 2 1
30 31 30 29 27 25 24 23 24 24 24 23 22 21 20 19 19 18 19 19 18 15 14 14 14 13 13 14 16 17 17 17 17 17 18 19 20 21 22 23 23 22 20 19 19 20 18 16 15 12 8 5 4 4 3 3 3 5 6 7 7 7 9 13 14 12 12 12 12 12 12 12 11 11 9 7 6 5 4 4 2 2 3 3 3
31 31 30 28 27 25 24 24 25 25 24 23 22 21 20 20 20 20 20 19 17 15 15 17 17 16 16 17 17 16 16 15 15 15 15 15 16 18 21 23 23 22 21 19 19 20 19 17 16 14 11 9 7 5 3 3 3 5 6 6 6 6 8 11 11 11 11 12 11 11 11 11 11 12 12 11 10 9 9 8 7 5 5 4 4
31 31 30 28 27 25 25 26 26 25 23 22 22 21 20 21 21 21 20 19 17 16 16 16 17 17 16 16 16 15 15 15 15 14 14 13 12 14 17 20 22 22 22 21 21 21 20 18 17 15 13 12 10 8 6 5 4 5 6 7 8 10 11 12 11 10 10 10 10 10 10 9 9 11 12 12 11 10 10 10 9 8 7 6 6
31 30 29 27 26 26 26 26 25 24 23 23 23 21 21 21 21 21 20 19 17 16 15 15 16 16 15 15 15 15 15 15 16 16 16 14 13 11 12 15 19 20 21 22 23 22 20 19 18 17 16 16 15 13 10 10 9 9 10 11 13 13 13 12 12 13 14 15 16 16 16 14 13 12 12 13 12 11 11 11 10 10 10 9 7
30 29 28 27 26 26 26 25 24 22 22 23 22 22 22 22 22 20 19 18 17 16 14 15 15 15 15 15 15 16 16 17 18 19 19 18 17 14 12 12 15 18 19 20 21 21 22 21 20 20 20 20 19 16 14 14 14 14 13 14 15 15 15 17 19 20 21 21 20 20 19 18 16 14 14 14 14 13 12 12 12 11 10 9 8
30 29 28 27 26 25 24 24 23 22 21 21 21 23 24 23 22 20 19 19 18 16 14 14 14 14 14 15 16 17 18 19 20 21 21 21 20 19 16 13 12 14 16 17 17 18 20 21 21 21 22 22 21 20 19 18 18 17 17 18 19 21 22 23 23 23 23 22 21 20 20 18 17 15 15 16 17 16 16 15 14 13 12 12 11
29 28 27 25 24 24 24 24 23 22 20 20 22 25 26 25 23 22 20 19 18 16 14 13 13 14 14 14 16 17 18 20 21 21 21 21 21 21 21 19 15 12 11 12 14 15 16 17 18 19 19 21 21 22 23 22 22 22 22 23 23 24 24 23 23 24 23 22 21 21 20 20 19 18 18 18 18 18 17 17 17 16 16 16 16
27 26 24 23 24 25 25 24 23 22 21 20 22 25 26 25 24 22 20 18 16 15 14 12 12 13 13 14 15 16 18 19 21 21 21 21 21 21 22 23 21 18 14 13 13 15 16 17 18 18 19 19 19 20 20 21 21 21 21 21 21 20 19 20 22 23 23 22 22 21 21 20 20 19 18 18 18 17 17 17 18 18 19 20 21
26 24 23 23 24 25 25 24 23 22 21 21 22 24 25 25 24 22 19 17 15 13 13 12 12 12 13 14 15 16 17 18 19 21 21 21 21 20 20 21 22 22 21 19 18 18 19 20 22 23 24 24 23 23 22 20 19 18 17 17 16 16 15 16 17 19 20 21 21 21 22 23 22 21 19 18 18 17 16 17 18 18 18 21 23
29 28 27 26 25 24 24 24 23 23 22 21 22 23 23 23 22 21 18 16 15 14 13 12 12 12 12 13 14 15 16 17 18 19 20 21 21 20 19 19 19 21 22 23 22 23 23 24 25 26 27 28 28 27 27 25 23 21 19 17 15 15 15 14 13 13 14 16 19 21 22 24 24 23 22 21 20 18 17 18 19 18 18 19 19
29 30 29 27 25 24 24 23 23 23 23 21 20 20 19 20 20 19 17 14 13 13 13 12 12 12 12 12 13 14 14 15 16 17 18 19 20 21 20 19 18 18 20 22 22 23 24 24 25 26 27 28 28 27 27 27 27 26 25 22 19 16 15 15 15 13 10 11 15 18 20 21 22 22 22 21 20 19 18 18 18 17 17 17 16
27 28 27 26 25 25 24 23 22 22 22 22 22 21 20 19 19 19 17 14 12 11 11 11 11 11 11 12 12 13 12 12 14 16 16 17 18 19 20 19 18 17 18 20 21 22 22 22 22 22 23 24 25 25 25 25 26 27 27 26 25 22 18 17 16 15 12 11 11 12 15 17 18 19 20 19 18 18 18 18 17 16 16 15 14
26 26 27 26 25 25 24 23 24 24 24 24 25 25 23 21 19 18 16 14 12 11 10 10 11 11 11 12 12 12 12 13 13 14 15 15 16 17 18 18 18 18 17 19 22 22 22 21 21 20 21 21 22 23 24 24 24 25 26 27 27 26 23 20 17 15 14 13 11 10 10 11 12 13 15 15 14 14 15 15 16 16 16 15 14
27 28 28 27 26 25 24 25 26 27 27 26 26 25 24 22 19 16 15 13 11 10 10 10 10 11 11 12 12 12 12 13 13 13 14 14 14 15 16 17 18 18 18 20 23 23 22 22 22 21 21 21 21 22 23 24 23 23 24 24 25 25 25 23 20 18 16 14 12 10 9 8 7 8 8 9 10 11 11 11 11 12 12 13 13
29 30 29 28 27 26 26 27 28 28 28 26 25 24 23 22 19 16 14 12 11 10 10 11 11 12 13 13 12 12 12 12 12 12 13 14 14 14 15 16 17 16 18 21 23 23 22 22 22 21 21 21 21 22 23 24 23 23 22 22 22 23 23 23 22 22 20 18 16 15 12 10 8 7 6 5 5 6 6 7 7 7 7 7 7
29 30 30 29 28 27 27 29 29 28 27 26 25 23 22 21 20 17 14 12 10 10 11 12 13 12 12 11 11 11 11 11 11 12 13 14 14 13 14 15 16 16 17 20 22 21 21 21 21 20 21 21 21 21 22 22 22 22 22 21 20 21 22 22 22 22 22 21 21 20 19 18 16 14 12 10 9 7 6 6 6 7 8 8 8
28 28 28 28 27 27 28 29 29 28 26 25 24 23 22 21 20 18 16 13 11 11 12 13 11 10 9 8 8 9 10 11 11 11 12 13 13 13 14 15 16 16 17 18 19 19 20 20 19 19 19 20 20 20 20 20 20 21 21 21 20 20 21 22 22 22 22 21 20 21 22 22 21 19 18 18 16 15 15 14 14 14 15 15 15
27 26 26 26 27 27 28 29 29 28 26 25 23 21 20 20 19 17 15 14 13 13 13 12 9 7 7 6 6 7 9 10 10 10 12 12 13 13 15 16 16 15 15 15 16 17 17 18 18 18 17 17 18 18 18 18 18 19 19 20 20 21 21 22 22 22 22 21 20 19 20 22 21 20 19 19 19 19 19 19 19 19 19 19 19
25 23 23 24 26 28 29 29 28 26 24 22 21 19 18 18 17 16 15 14 13 12 12 10 8 6 5 4 5 7 9 10 10 11 11 12 13 14 15 15 14 14 14 13 14 14 15 15 15 15 15 14 14 15 15 15 15 16 16 18 19 20 20 20 21 21 22 22 21 19 18 19 20 19 19 18 18 18 19 19 20 21 21 21 21
23 20 20 22 25 27 28 28 26 23 21 20 19 18 17 16 15 15 15 14 13 12 11 9 7 6 5 5 7 10 11 11 10 11 11 11 11 12 13 12 12 12 13 12 12 13 13 13 12 12 12 11 11 10 10 11 12 13 14 16 17 18 18 19 19 20 21 21 22 20 18 17 17 17 18 18 17 16 16 17 19 21 21 22 21
22 19 19 21 24 27 26 24 22 20 18 18 18 17 16 16 16 16 16 15 14 12 11 9 8 7 7 8 10 11 11 11 11 11 11 11 10 10 10 10 10 10 11 11 11 11 11 11 11 11 11 10 9 8 8 8 8 9 11 13 16 17 18 18 18 19 19 20 21 21 20 19 17 16 16 18 17 16 15 14 15 17 19 19 19
22 21 20 20 21 22 21 19 18 18 17 17 18 18 18 18 18 18 17 15 13 12 11 10 10 9 9 9 10 11 11 11 11 11 11 10 9 9 9 8 8 9 9 9 9 9 9 9 9 10 11 11 10 10 8 8 7 8 9 11 14 17 18 18 18 18 18 19 20 20 20 20 19 17 17 18 18 17 16 15 13 14 15 17 17
22 21 20 18 17 17 18 19 18 17 16 16 17 19 20 20 18 17 16 15 12 10 9 10 10 10 10 10 10 10 10 10 10 10 9 9 9 8 8 7 7 7 8 8 7 7 7 7 8 8 9 11 11 10 9 9 8 8 9 10 12 14 16 17 18 17 17 17 18 18 18 18 18 17 17 16 16 17 17 17 14 13 14 16 16
20 20 19 17 14 15 18 20 18 16 16 16 16 17 18 18 17 17 16 15 12 9 9 10 11 11 11 10 9 9 9 9 9 9 9 9 8 7 6 6 6 6 6 6 6 5 5 6 6 6 7 9 10 10 9 8 8 8 9 9 11 12 14 16 16 17 16 16 16 16 16 16 15 15 15 15 14 15 16 17 15 14 15 15 15
19 19 19 16 14 16 19 20 18 15 14 14 13 13 15 17 18 17 17 14 11 9 9 10 12 13 12 11 9 8 8 8 8 9 9 9 8 6 6 5 5 5 5 4 4 3 4 5 6 6 6 7 8 9 9 8 8 8 8 9 10 12 12 13 14 15 15 15 15 14 15 15 14 13 13 14 13 13 14 16 16 14 15 15 15
19 19 18 16 15 17 19 18 17 15 14 13 12 11 13 17 19 19 17 15 12 10 10 11 13 14 13 11 9 9 9 9 9 9 9 8 7 6 6 5 4 5 4 4 3 2 3 5 6 6 5 5 5 7 8 8 7 7 8 8 9 10 11 12 12 13 13 13 13 13 13 13 14 12 11 12 12 12 13 16 16 15 15 15 15
19 20 19 17 16 17 17 15 14 14 14 16 16 13 12 15 18 18 17 17 14 12 12 13 13 14 13 12 10 9 9 9 9 10 10 9 7 6 6 5 4 4 4 4 3 2 3 5 6 6 4 4 4 5 7 7 7 7 7 7 7 7 9 10 10 11 11 11 11 11 11 12 13 13 11 10 11 11 12 15 16 15 14 14 15
20 20 20 18 17 15 14 12 13 15 17 19 18 15 13 13 14 15 17 18 16 13 13 14 14 14 13 13 12 12 11 10 10 11 10 8 6 6 7 6 5 4 4 3 3 2 3 4 5 6 4 3 3 4 5 6 6 6 7 6 6 6 6 7 8 9 9 8 9 10 10 10 12 13 12 10 10 10 12 14 14 14 13 13 13
22 21 21 19 17 15 13 12 13 17 20 20 19 17 15 14 14 15 16 17 16 14 14 15 15 14 14 13 13 13 13 12 12 12 10 8 6 7 7 8 6 5 4 3 3 3 3 3 4 4 3 2 2 3 4 5 5 6 6 6 6 5 5 5 6 7 7 7 7 8 9 9 10 11 11 11 10 10 11 13 14 14 14 13 12
22 22 21 20 18 16 14 13 16 20 22 22 21 19 16 15 16 16 16 16 15 15 16 16 16 15 15 14 14 13 13 13 14 13 11 8 7 8 8 7 7 6 4 2 1 1 1 2 2 2 2 2 2 2 3 4 5 5 6 5 5 5 4 4 4 5 5 5 6 6 7 8 8 9 10 11 11 12 12 12 12 13 13 13 12
22 21 21 21 20 17 15 16 20 23 24 23 22 21 18 16 16 15 15 15 15 15 16 17 16 14 15 15 14 13 12 13 14 15 13 10 9 8 8 7 7 7 5 3 1 1 1 1 1 1 1 2 1 2 3 4 5 5 5 4 4 4 4 3 3 3 4 4 5 5 5 6 7 9 10 9 9 11 13 13 13 13 13 12 11
22 22 21 20 19 18 17 19 24 26 26 24 22 21 20 19 17 15 15 15 15 15 17 18 17 15 15 16 15 13 12 12 12 13 14 13 11 10 9 8 7 6 6 4 3 2 2 2 1 1 1 1 1 2 3 4 4 4 4 4 3 3 3 3 2 2 2 3 5 6 7 6 8 11 12 9 7 8 11 12 13 14 14 13 11
23 22 21 19 17 17 20 24 27 27 26 23 20 18 18 19 19 17 16 17 17 17 19 20 20 17 15 16 16 14 12 11 10 10 12 14 14 12 10 8 7 6 6 6 5 4 4 3 2 2 1 1 0 2 3 3 3 3 3 3 3 3 3 3 2 1 1 2 3 5 7 7 8 11 13 11 8 7 8 10 11 13 14 13 12
Wind_Direction
205 208 211 213 216 220 225 229 232 237 241 245 248 253 258 261 263 264 259 251 245 238 227 175 148 143 127 119 116 108 93 81 64 41 21 353 306 301 323 328 322 324 324 312 304 312 325 344 4 333 312 314 312 305 292 285 290 288 279 279 277 272 256 238 232 257 268 270 272 275 278 281 284 284 283 283 285 286 288 289 288 288 287 287 287
204 207 210 212 216 220 225 229 233 239 245 248 251 254 255 249 230 210 181 156 143 137 125 115 117 121 114 108 99 87 76 69 66 59 48 30 0 348 1 4 357 353 350 341 331 331 339 349 357 356 346 333 319 318 314 307 305 295 283 280 279 279 270 250 243 247 261 269 274 277 279 279 279 281 283 287 288 289 292 291 289 288 286 287 285
204 206 209 212 216 220 225 230 235 241 244 244 239 225 195 164 155 150 138 130 124 117 112 112 110 108 103 96 87 79 72 68 66 63 57 43 26 9 5 12 19 17 10 2 351 342 345 350 352 357 357 339 323 321 321 318 313 304 298 293 279 274 273 262 253 251 259 271 276 278 280 280 280 279 279 286 290 291 292 290 288 287 287 288 281
203 204 208 213 217 219 222 224 222 213 188 161 144 137 133 129 128 129 126 121 113 107 103 104 104 101 95 87 81 75 69 66 63 60 54 46 38 25 8 4 8 7 359 353 346 338 335 337 340 343 339 327 323 324 322 318 311 304 301 295 279 270 272 269 264 262 253 253 267 276 279 280 279 275 273 278 282 283 285 285 285 283 280 274 261
201 202 205 210 213 215 209 196 183 163 141 129 125 122 120 118 114 114 115 109 104 101 98 95 94 91 86 79 74 69 63 57 53 48 41 32 27 18 6 355 346 343 340 336 334 332 330 326 326 330 332 329 326 326 324 320 315 311 308 302 292 285 283 278 272 264 246 238 258 275 280 278 278 279 280 279 276 274 273 273 275 278 276 266 259
201 201 203 205 207 204 183 162 152 141 130 124 120 117 114 112 108 104 104 101 97 93 90 88 86 84 80 74 69 63 56 49 41 35 27 18 11 4 357 349 340 334 330 328 328 328 327 324 321 323 328 328 328 328 324 321 321 317 311 305 300 298 293 284 276 265 251 246 257 271 279 281 281 283 284 279 274 275 276 275 275 275 277 276 271
198 199 200 200 195 179 158 146 137 130 126 122 119 115 111 107 102 97 95 93 89 87 88 88 85 81 76 69 63 54 46 38 31 24 17 9 2 357 350 345 339 334 328 325 325 325 326 328 331 332 334 332 328 324 322 321 319 309 301 298 296 298 295 286 280 267 252 250 256 266 277 283 284 286 289 287 280 279 278 275 273 272 272 275 273
190 188 186 179 166 151 142 136 131 127 123 119 115 111 107 101 97 93 89 87 85 85 87 87 84 80 72 64 56 46 36 30 23 14 7 0 354 348 343 340 336 332 330 328 325 325 327 331 338 343 344 339 333 329 329 328 319 305 297 295 294 296 294 287 281 267 251 248 253 260 269 278 283 285 290 290 282 279 279 266 259 263 265 261 259
174 168 160 151 143 138 134 130 126 123 119 116 111 106 101 97 95 91 86 84 84 85 86 84 81 75 66 58 48 36 29 25 18 10 3 357 351 345 342 341 340 337 336 335 332 330 332 333 338 343 342 340 341 343 341 332 318 303 297 301 301 299 294 288 283 273 260 252 254 257 261 270 278 282 285 285 278 279 289 268 248 249 249 244 243
156 150 143 137 135 133 130 126 123 120 116 111 107 104 100 97 92 88 86 84 83 84 82 77 72 64 55 45 34 27 24 21 15 8 3 357 352 348 347 347 349 349 347 344 341 340 341 341 341 341 341 340 342 345 343 334 323 308 302 308 306 298 290 283 280 278 272 265 265 265 262 265 273 276 277 280 281 279 275 257 236 225 217 230 239
144 140 134 132 132 130 127 124 120 116 113 110 107 104 100 95 91 89 88 85 82 80 75 68 62 52 41 33 27 26 24 19 13 6 1 359 357 356 358 1 3 5 359 353 349 346 344 345 344 344 347 344 340 344 348 346 341 334 328 324 316 313 304 284 272 267 268 272 275 271 264 266 275 281 283 283 283 274 248 221 208 207 214 228 238
136 132 130 130 130 128 125 123 118 114 111 109 106 104 100 97 94 92 89 84 80 75 69 63 55 43 34 31 30 29 24 17 9 5 4 7 10 11 15 19 16 10 3 356 350 346 342 341 341 343 345 339 339 349 353 345 345 349 349 348 344 358 357 313 271 258 264 271 270 268 266 268 275 283 294 293 284 266 234 221 225 236 236 229 224
130 128 129 130 129 127 125 122 117 114 112 110 107 106 103 99 96 93 90 87 81 73 66 61 53 43 37 34 32 29 21 12 7 9 12 16 19 20 23 22 15 8 3 358 352 347 343 340 338 340 342 339 344 1 357 341 344 352 358 13 17 14 12 351 290 270 275 271 264 269 273 275 275 276 284 295 282 252 240 252 254 250 250 243 236
129 128 129 129 128 127 126 122 118 115 114 112 109 106 103 101 99 99 97 90 80 71 65 60 56 52 46 39 34 27 18 11 10 15 17 15 16 19 19 18 15 11 7 3 357 350 346 343 339 338 342 339 346 9 4 355 358 358 358 20 30 30 31 26 356 316 295 275 265 274 281 286 285 278 271 277 274 254 252 257 254 255 275 274 274
128 129 129 129 129 129 127 124 121 119 117 114 112 109 106 106 106 103 96 86 78 73 69 67 67 64 54 43 35 25 18 16 17 17 16 15 18 21 21 21 18 14 13 9 3 357 353 347 338 335 336 330 336 3 6 360 353 350 3 26 44 52 53 47 35 28 17 339 298 288 286 292 294 282 259 253 264 260 255 254 256 276 286 290 290
128 130 130 131 132 133 131 128 125 123 121 118 115 114 113 112 109 102 94 88 84 80 77 75 75 72 59 43 33 27 26 25 23 21 21 23 25 27 27 26 21 17 17 14 9 5 360 352 345 344 341 327 341 357 1 358 339 326 2 30 54 59 56 54 43 34 37 40 22 332 294 304 314 313 311 281 268 254 241 250 289 305 316 346 353
131 133 134 135 136 136 134 130 126 124 123 121 121 121 118 115 109 103 98 94 89 85 83 80 76 72 60 41 34 36 39 36 31 29 28 27 26 25 26 26 23 21 20 17 13 10 8 9 14 13 0 343 353 1 4 359 327 315 0 28 49 51 51 52 46 41 48 51 41 35 44 44 30 24 6 315 284 263 246 239 37 77 108 90 79
135 135 135 137 137 136 134 130 126 126 126 125 125 123 119 114 111 107 102 98 96 93 89 81 72 69 63 50 47 51 50 44 38 33 29 26 25 23 24 26 25 23 21 19 18 18 21 23 20 10 358 348 7 20 14 359 2 22 30 39 43 36 36 40 43 52 65 67 63 64 65 63 63 63 47 16 4 339 210 170 145 107 100 93 65
136 134 134 136 135 134 132 129 130 131 131 129 127 123 119 117 114 110 105 103 102 96 85 76 72 70 72 69 63 58 51 43 38 32 27 27 26 24 24 25 25 23 21 19 21 26 31 31 23 20 30 48 54 51 34 20 40 45 40 45 47 36 31 37 47 60 68 71 78 81 78 77 77 75 68 65 65 66 83 105 112 116 104 77 39
134 134 135 135 135 133 132 133 135 136 133 130 128 125 122 121 118 113 110 108 103 92 82 79 78 76 77 73 64 56 49 43 38 32 26 23 24 26 28 27 25 25 24 22 24 28 32 34 33 36 45 52 52 52 40 26 38 41 38 45 50 47 49 56 65 73 73 75 81 81 79 79 79 76 75 75 75 77 84 90 93 103 109 93 72
135 136 136 135 135 134 135 137 138 137 134 132 131 128 126 124 121 117 115 112 103 92 87 86 83 81 78 71 61 54 50 46 42 37 32 25 22 28 34 33 31 31 31 31 32 33 32 34 35 38 42 44 43 43 42 45 51 53 56 67 78 79 75 74 75 75 73 75 74 69 66 63 62 66 71 73 76 79 86 91 92 91 89 84 85
136 135 134 135 135 136 138 140 139 137 137 136 134 133 131 127 123 121 121 116 106 99 96 93 89 85 78 69 62 57 53 48 46 44 44 42 37 36 43 46 43 40 39 40 41 41 40 40 41 44 48 49 47 46 50 57 64 71 78 87 92 89 82 76 74 71 67 65 61 56 51 47 46 52 62 73 80 80 79 80 79 77 76 73 73
134 133 133 134 136 138 139 140 139 138 140 139 136 134 133 130 126 126 125 119 111 107 104 98 93 87 77 69 62 59 56 52 49 48 50 53 51 49 54 63 60 54 49 47 48 50 51 50 50 51 52 52 51 51 54 61 69 77 86 92 93 90 84 79 76 70 64 60 56 51 47 45 45 50 61 76 85 85 80 77 75 74 75 73 72
132 132 134 137 140 142 142 142 141 139 138 138 136 134 132 129 125 124 123 119 115 111 106 101 94 83 72 65 61 59 58 56 53 52 54 57 57 56 56 62 69 65 58 55 55 56 56 55 56 56 56 57 58 60 62 68 72 77 84 89 90 88 85 80 75 69 62 56 51 48 47 47 49 59 77 89 94 94 91 89 85 82 80 77 74
133 135 138 140 143 144 144 144 144 141 137 136 136 136 133 128 124 121 118 115 114 112 108 103 94 81 70 62 57 57 58 58 56 57 59 62 63 63 61 61 63 64 57 49 47 47 46 47 49 51 54 58 63 66 69 73 78 83 88 90 90 88 85 80 75 69 62 56 51 48 49 53 62 77 93 98 98 97 96 94 91 87 83 80 75
135 138 139 140 142 143 143 143 142 142 139 136 135 138 137 133 129 126 121 117 117 117 115 109 96 84 74 63 57 57 59 60 59 60 63 68 69 70 69 69 68 66 61 51 44 43 43 43 44 47 52 56 60 63 67 70 74 79 84 86 86 86 84 80 76 71 66 62 58 55 56 63 73 86 96 97 94 93 93 92 89 85 82 79 74
137 139 140 140 141 143 141 139 139 139 138 136 136 139 141 138 135 132 129 127 127 126 122 114 102 89 77 66 62 60 60 61 61 62 64 69 71 71 70 72 72 72 71 67 63 61 59 58 59 63 67 68 67 67 69 69 68 67 68 69 69 69 69 70 72 74 73 71 69 68 70 74 78 82 86 87 87 88 90 91 88 84 82 80 75
144 144 144 143 143 143 141 139 139 138 137 137 138 139 142 142 139 137 136 137 137 135 128 117 105 95 84 75 69 64 61 61 61 61 63 67 72 73 73 71 73 74 76 76 76 74 71 69 68 69 71 71 70 70 69 68 67 65 63 61 60 59 60 62 65 71 76 78 79 79 79 80 80 81 83 84 85 86 89 90 88 85 83 79 74
146 145 145 146 145 146 146 144 143 141 138 138 137 140 145 147 144 141 140 141 141 136 128 119 109 100 91 84 77 69 63 63 64 66 67 69 72 76 77 76 75 76 80 84 84 81 76 72 68 66 65 66 66 66 66 65 65 64 63 64 67 69 70 69 68 69 77 87 88 86 83 83 83 83 83 84 85 86 88 89 89 88 85 81 77
145 144 146 148 149 150 150 149 148 146 143 141 138 137 138 141 141 140 139 139 138 133 125 118 111 104 97 92 84 76 70 71 74 76 77 77 78 80 83 85 85 83 85 89 87 79 72 67 63 60 60 60 60 60 63 64 63 61 62 64 67 72 76 77 77 78 83 91 95 93 89 86 85 85 84 84 86 87 88 88 88 88 86 84 81
146 146 149 151 153 153 151 150 150 148 145 142 139 135 131 130 131 133 135 136 136 131 124 118 112 108 104 98 91 84 80 83 85 85 84 85 86 86 88 91 91 89 90 89 81 72 65 62 59 57 58 58 57 58 60 62 61 60 61 62 64 68 72 76 81 86 89 90 93 98 97 91 88 86 85 84 85 86 87 88 87 86 85 85 84
149 150 153 154 154 153 151 149 147 144 142 142 140 136 133 131 132 134 137 139 138 134 128 121 115 114 112 105 97 91 89 91 93 92 91 92 92 92 92 91 90 91 92 87 76 68 64 61 58 57 58 58 58 60 62 61 60 61 61 61 60 62 66 70 76 83 88 88 90 94 98 98 95 91 89 87 85 83 82 81 80 80 83 86 87
155 154 156 155 153 152 150 148 146 145 144 144 142 139 137 137 138 142 145 144 142 139 133 125 120 117 113 106 99 93 90 91 94 95 96 97 96 97 96 93 90 91 90 84 75 69 66 65 62 60 61 62 63 65 65 63 63 63 62 61 60 61 64 69 72 75 78 81 84 84 86 90 93 94 93 90 84 78 70 59 52 51 55 60 67
159 158 159 158 156 155 153 152 151 150 149 149 147 144 142 141 142 144 146 147 149 147 139 132 126 120 112 105 99 94 90 91 96 99 100 99 98 101 103 97 91 87 84 80 76 72 70 68 66 65 66 67 68 69 68 66 65 65 64 64 64 65 67 70 71 70 70 74 78 78 78 79 82 86 90 91 89 82 73 62 54 49 47 47 50
159 160 163 164 162 160 159 157 156 157 157 156 152 150 149 148 147 146 144 143 146 149 146 139 131 124 117 112 107 103 100 100 103 105 105 102 102 105 106 98 89 84 82 80 78 76 73 71 71 71 71 71 72 73 73 70 68 66 66 67 67 68 69 69 69 68 68 69 72 74 75 75 77 82 87 88 86 81 77 74 71 66 63 61 59
159 161 166 169 168 166 164 163 163 163 163 160 158 157 157 158 158 155 150 146 145 148 150 149 142 134 130 126 124 121 115 110 110 110 108 106 104 101 98 92 87 85 84 83 81 79 77 75 75 76 76 75 75 76 77 76 72 69 69 70 70 69 69 69 68 69 68 68 69 73 75 73 73 77 80 81 79 77 74 71 68 64 61 59 56
162 164 169 174 173 170 167 167 167 166 165 166 168 169 171 173 172 168 164 161 156 153 156 161 160 155 150 147 145 139 128 119 115 113 110 109 106 101 98 97 95 91 88 86 85 84 80 77 76 76 76 75 74 74 76 77 76 73 72 73 73 72 70 70 70 69 68 66 67 70 73 72 71 72 74 75 76 75 71 66 63 60 56 53 51
166 168 170 172 172 169 166 167 169 170 173 177 181 184 188 194 195 190 185 182 176 170 171 177 178 175 170 164 157 148 137 128 122 117 114 114 111 107 102 101 102 102 97 90 88 87 83 79 76 74 71 68 66 67 69 73 75 75 74 74 75 75 74 73 72 70 68 66 65 67 70 71 70 69 70 72 75 76 73 66 61 58 54 50 46
166 167 169 170 169 166 166 169 174 180 187 193 198 204 209 212 207 196 188 184 182 182 186 191 191 183 170 162 158 153 145 138 130 123 118 115 114 114 111 105 103 109 109 100 94 92 88 83 78 72 67 62 57 55 61 69 76 77 76 75 75 75 74 73 71 69 67 65 65 65 67 69 69 68 66 65 65 68 70 66 61 57 54 50 47
170 167 168 170 170 172 178 184 189 195 201 206 207 206 202 197 191 183 177 176 180 185 192 197 192 179 165 160 161 160 153 146 139 132 126 119 111 110 114 112 108 112 116 112 103 98 94 90 83 73 65 60 55 53 58 68 78 84 83 79 76 74 74 73 72 70 68 66 65 64 64 64 66 67 65 62 60 60 59 57 55 55 52 49 47
178 173 171 170 173 181 191 195 193 188 184 182 181 179 179 180 181 180 178 179 183 189 195 196 189 176 163 159 161 162 158 151 145 140 135 128 119 113 112 115 119 123 124 121 114 108 103 99 93 83 70 61 56 56 60 66 74 84 89 87 81 77 75 74 73 73 71 69 66 63 60 60 61 62 61 59 58 56 53 51 52 54 51 48 46
183 178 175 175 178 185 188 186 182 174 167 165 166 170 175 179 180 181 182 183 188 198 203 196 186 177 170 166 166 165 162 156 154 151 144 134 128 127 125 121 125 133 136 130 122 118 116 111 106 100 85 69 59 58 62 64 66 73 83 89 88 82 76 73 73 74 75 73 68 61 57 55 55 57 57 54 51 49 47 48 51 52 50 48 47
184 178 177 180 185 187 184 180 177 175 173 171 171 178 186 187 184 183 186 187 188 196 200 192 183 179 179 180 183 183 177 168 162 160 156 144 134 138 144 134 122 129 145 147 136 128 129 128 123 114 99 82 66 59 62 65 64 69 80 88 89 84 77 72 72 72 73 72 67 59 53 49 49 53 55 51 47 45 44 45 48 49 50 51 50
183 177 178 182 182 181 180 179 180 183 183 179 174 177 187 191 188 186 187 187 183 181 183 182 182 184 189 196 198 194 189 181 171 165 164 155 144 148 161 153 130 127 140 148 151 152 142 138 138 131 114 96 72 57 59 66 70 75 81 86 88 85 77 70 67 67 68 69 65 58 53 49 46 49 52 51 47 44 41 41 44 48 50 51 50
185 180 181 183 181 179 180 185 190 192 190 186 184 181 182 188 191 191 192 191 187 184 185 187 189 193 200 206 206 198 191 185 178 175 173 167 159 165 175 171 151 140 139 137 139 143 131 133 146 153 140 111 81 59 57 65 75 82 83 83 87 86 78 71 67 65 67 68 64 58 55 50 43 41 43 45 47 44 39 38 41 46 49 50 49
192 187 186 187 186 184 186 193 200 199 193 189 190 190 187 187 190 193 194 194 194 196 201 205 207 207 209 213 215 210 200 188 182 181 180 176 175 180 184 182 171 155 143 128 116 110 108 122 147 163 161 130 94 68 60 66 78 87 85 82 83 84 83 80 75 69 68 69 64 57 55 52 45 39 37 40 45 43 38 38 42 46 48 48 48
197 194 192 192 191 192 197 204 206 201 194 190 192 194 193 192 191 190 190 194 202 212 217 219 222 225 224 224 223 217 207 197 193 190 187 185 186 185 187 191 189 175 155 132 107 93 91 111 138 157 167 154 113 74 64 71 81 85 84 81 81 83 88 91 85 77 71 69 62 54 52 51 48 42 38 38 41 38 34 37 43 46 46 45 44
199 196 195 196 196 199 206 213 209 200 194 193 196 196 193 191 193 195 199 206 215 224 229 232 238 241 235 227 224 221 214 208 206 202 197 193 190 184 183 189 193 188 178 161 132 96 92 111 123 127 125 122 117 88 77 80 84 82 78 77 78 81 90 99 97 86 73 60 53 52 50 46 44 39 32 31 34 34 32 34 37 37 35 36 38
199 197 196 197 201 207 214 214 207 200 196 197 201 201 197 193 195 203 214 220 223 229 236 240 243 240 229 221 221 222 220 217 214 209 205 204 199 189 182 184 191 194 196 199 214 224 202 175 146 94 68 71 92 104 96 90 88 82 72 65 64 69 78 97 113 103 78 55 50 53 47 36 30 27 23 22 27 31 32 32 30 26 23 25 30
198 197 196 198 206 215 215 207 200 198 198 200 202 204 205 205 205 209 217 222 223 231 239 241 239 235 230 226 222 219 219 222 221 215 213 214 210 196 185 185 192 197 204 216 231 235 230 238 265 307 348 10 76 112 107 93 86 81 70 60 56 53 54 71 110 125 93 59 54 53 46 34 25 24 23 22 21 23 27 28 25 22 22 24 27
198 197 199 204 212 216 208 199 196 197 199 202 203 205 208 210 211 213 219 223 227 235 240 238 235 237 239 234 226 219 218 223 226 223 222 222 216 205 195 196 200 200 205 216 230 234 236 252 283 313 314 298 242 126 114 99 90 82 70 60 56 49 44 52 88 132 120 57 44 41 37 33 28 25 25 24 20 16 17 20 19 21 24 25 23